Observation data for Floydada on 12/08/2018      Previous  Date       Current Mesonet Observations  Soil Data  Daily Summary Page  Observations in Plain Language
KFLS 080600Z 02002KT M01/M01 A3028 RMK A01 T10081014  RH  097%=      5-min Rain = 0
KFLS 080605Z 02003KT M01/M02 A3028 RMK A01 T10091015  RH  097%=      5-min Rain = 0
KFLS 080610Z 02002KT M01/M02 A3028 RMK A01 T10091015  RH  097%=      5-min Rain = 0
KFLS 080615Z 02003KT M01/M02 A3027 RMK A01 T10091016  RH  097%=      5-min Rain = 0
KFLS 080620Z 02002KT M01/M02 A3027 RMK A01 T10101016  RH  097%=      5-min Rain = 0
KFLS 080625Z 02003KT M01/M02 A3027 RMK A01 T10101016  RH  097%=      5-min Rain = 0
KFLS 080630Z 02003KT M01/M02 A3027 RMK A01 T10101016  RH  097%=      5-min Rain = 0
KFLS 080635Z 02003KT M01/M02 A3026 RMK A01 T10111017  RH  097%=      5-min Rain = 0
KFLS 080640Z 02003KT M01/M02 A3026 RMK A01 T10111017  RH  097%=      5-min Rain = 0
KFLS 080645Z 01004KT M01/M02 A3026 RMK A01 T10111017  RH  097%=      5-min Rain = 0
KFLS 080650Z 01004KT M01/M02 A3026 RMK A01 T10111017  RH  097%=      5-min Rain = 0
KFLS 080655Z 02004KT M01/M02 A3026 RMK A01 T10121017  RH  097%=      5-min Rain = 0
KFLS 080700Z 01004KT M01/M02 A3026 RMK A01 T10121017  RH  097%=      5-min Rain = 0
KFLS 080705Z 02004KT M01/M02 A3026 RMK A01 T10121017  RH  097%=      5-min Rain = 0
KFLS 080710Z 02003KT M01/M02 A3026 RMK A01 T10111017  RH  097%=      5-min Rain = 0
KFLS 080715Z 02003KT M01/M02 A3026 RMK A01 T10111016  RH  097%=      5-min Rain = 0
KFLS 080720Z 01003KT M01/M02 A3026 RMK A01 T10111016  RH  097%=      5-min Rain = 0
KFLS 080725Z 02003KT M01/M02 A3026 RMK A01 T10111016  RH  097%=      5-min Rain = 0
KFLS 080730Z 02003KT M01/M02 A3026 RMK A01 T10111016  RH  097%=      5-min Rain = 0
KFLS 080735Z 02003KT M01/M02 A3026 RMK A01 T10101015  RH  097%=      5-min Rain = 0
KFLS 080740Z 02003KT M01/M02 A3026 RMK A01 T10101015  RH  098%=      5-min Rain = 0
KFLS 080745Z 02003KT M01/M02 A3026 RMK A01 T10101015  RH  098%=      5-min Rain = 0
KFLS 080750Z 02003KT M01/M02 A3026 RMK A01 T10101015  RH  098%=      5-min Rain = 0
KFLS 080755Z 02003KT M01/M01 A3026 RMK A01 T10101014  RH  098%=      5-min Rain = 0
KFLS 080800Z 03002KT M01/M01 A3026 RMK A01 T10101014  RH  098%=      5-min Rain = 0
KFLS 080805Z 03003KT M01/M01 A3026 RMK A01 T10101014  RH  098%=      5-min Rain = 0
KFLS 080810Z 03003KT M01/M01 A3026 RMK A01 T10101014  RH  098%=      5-min Rain = 0
KFLS 080815Z 03003KT M01/M01 A3026 RMK A01 T10101014  RH  098%=      5-min Rain = 0
KFLS 080820Z 02003KT M01/M02 A3026 RMK A01 T10101015  RH  098%=      5-min Rain = 0
KFLS 080825Z 03003KT M01/M02 A3026 RMK A01 T10111015  RH  098%=      5-min Rain = 0
KFLS 080830Z 03003KT M01/M02 A3026 RMK A01 T10111016  RH  098%=      5-min Rain = 0
KFLS 080835Z 03003KT M01/M02 A3026 RMK A01 T10111016  RH  098%=      5-min Rain = 0
KFLS 080840Z 03003KT M01/M02 A3026 RMK A01 T10121016  RH  098%=      5-min Rain = 0
KFLS 080845Z 02003KT M01/M02 A3025 RMK A01 T10121016  RH  098%=      5-min Rain = 0
KFLS 080850Z 02003KT M01/M02 A3025 RMK A01 T10121016  RH  098%=      5-min Rain = 0
KFLS 080855Z 02003KT M01/M02 A3025 RMK A01 T10121016  RH  098%=      5-min Rain = 0
KFLS 080900Z 02003KT M01/M02 A3025 RMK A01 T10121016  RH  098%=      5-min Rain = 0
KFLS 080905Z 03003KT M01/M02 A3025 RMK A01 T10121016  RH  098%=      5-min Rain = 0
KFLS 080910Z 03002KT M01/M02 A3025 RMK A01 T10121016  RH  098%=      5-min Rain = 0
KFLS 080915Z 03003KT M01/M02 A3025 RMK A01 T10121016  RH  098%=      5-min Rain = 0
KFLS 080920Z 03003KT M01/M02 A3025 RMK A01 T10121017  RH  098%=      5-min Rain = 0
KFLS 080925Z 03003KT M01/M02 A3025 RMK A01 T10121017  RH  098%=      5-min Rain = 0
KFLS 080930Z 03002KT M01/M02 A3025 RMK A01 T10121017  RH  098%=      5-min Rain = 0
KFLS 080935Z 03003KT M01/M02 A3024 RMK A01 T10121016  RH  098%=      5-min Rain = 0
KFLS 080940Z 02003KT M01/M02 A3024 RMK A01 T10121016  RH  098%=      5-min Rain = 0
KFLS 080945Z 02003KT M01/M02 A3024 RMK A01 T10121016  RH  098%=      5-min Rain = 0
KFLS 080950Z 02003KT M01/M02 A3024 RMK A01 T10121016  RH  098%=      5-min Rain = 0
KFLS 080955Z 02003KT M01/M02 A3024 RMK A01 T10121016  RH  098%=      5-min Rain = 0
KFLS 081000Z 02003KT M01/M02 A3024 RMK A01 T10121017  RH  098%=      5-min Rain = 0
KFLS 081005Z 02003KT M01/M02 A3024 RMK A01 T10131017  RH  098%=      5-min Rain = 0
KFLS 081010Z 02003KT M01/M02 A3023 RMK A01 T10131017  RH  098%=      5-min Rain = 0
KFLS 081015Z 02003KT M01/M02 A3023 RMK A01 T10131017  RH  098%=      5-min Rain = 0
KFLS 081020Z 02003KT M01/M02 A3023 RMK A01 T10131018  RH  098%=      5-min Rain = 0
KFLS 081025Z 02003KT M01/M02 A3023 RMK A01 T10131018  RH  098%=      5-min Rain = 0
KFLS 081030Z 02003KT M01/M02 A3023 RMK A01 T10131018  RH  098%=      5-min Rain = 0
KFLS 081035Z 02003KT M01/M02 A3023 RMK A01 T10131018  RH  098%=      5-min Rain = 0
KFLS 081040Z 02003KT M01/M02 A3023 RMK A01 T10131018  RH  098%=      5-min Rain = 0
KFLS 081045Z 02003KT M01/M02 A3023 RMK A01 T10141018  RH  098%=      5-min Rain = 0
KFLS 081050Z 02003KT M01/M02 A3023 RMK A01 T10141018  RH  098%=      5-min Rain = 0
KFLS 081055Z 02003KT M01/M02 A3023 RMK A01 T10141018  RH  098%=      5-min Rain = 0
KFLS 081100Z 02003KT M01/M02 A3023 RMK A01 T10141018  RH  098%=      5-min Rain = 0
KFLS 081105Z 02003KT M01/M02 A3023 RMK A01 T10141019  RH  098%=      5-min Rain = 0
KFLS 081110Z 02002KT M01/M02 A3023 RMK A01 T10141019  RH  098%=      5-min Rain = 0
KFLS 081115Z 03003KT M01/M02 A3023 RMK A01 T10141019  RH  098%=      5-min Rain = 0
KFLS 081120Z 03003KT M01/M02 A3023 RMK A01 T10141019  RH  098%=      5-min Rain = 0
KFLS 081125Z 03002KT M01/M02 A3023 RMK A01 T10141019  RH  098%=      5-min Rain = 0
KFLS 081130Z 02002KT M01/M02 A3023 RMK A01 T10141019  RH  098%=      5-min Rain = 0
KFLS 081135Z 02002KT M01/M02 A3023 RMK A01 T10141019  RH  098%=      5-min Rain = 0
KFLS 081140Z 03002KT M01/M02 A3023 RMK A01 T10141019  RH  098%=      5-min Rain = 0
KFLS 081145Z 03002KT M01/M02 A3024 RMK A01 T10141019  RH  098%=      5-min Rain = 0
KFLS 081150Z 03002KT M01/M02 A3024 RMK A01 T10141019  RH  098%=      5-min Rain = 0
KFLS 081155Z 02002KT M01/M02 A3024 RMK A01 T10141019  RH  098%=      5-min Rain = 0
KFLS 081200Z 01003KT M02/M02 A3024 RMK A01 T10151020  RH  098%=      5-min Rain = 0
KFLS 081205Z 02003KT M02/M02 A3025 RMK A01 T10181023  RH  098%=      5-min Rain = 0
KFLS 081210Z 01003KT M02/M02 A3025 RMK A01 T10191024  RH  097%=      5-min Rain = 0
KFLS 081215Z 01003KT M02/M03 A3025 RMK A01 T10191025  RH  097%=      5-min Rain = 0
KFLS 081220Z 01003KT M02/M03 A3025 RMK A01 T10201025  RH  097%=      5-min Rain = 0
KFLS 081225Z 01003KT M02/M03 A3025 RMK A01 T10201026  RH  097%=      5-min Rain = 0
KFLS 081230Z 01003KT M02/M03 A3025 RMK A01 T10211026  RH  097%=      5-min Rain = 0
KFLS 081235Z 02003KT M02/M03 A3025 RMK A01 T10211027  RH  097%=      5-min Rain = 0
KFLS 081240Z 01003KT M02/M03 A3025 RMK A01 T10211027  RH  097%=      5-min Rain = 0
KFLS 081245Z 02003KT M02/M03 A3025 RMK A01 T10211027  RH  097%=      5-min Rain = 0
KFLS 081250Z 01003KT M02/M03 A3025 RMK A01 T10221027  RH  097%=      5-min Rain = 0
KFLS 081255Z 01002KT M02/M03 A3026 RMK A01 T10211027  RH  097%=      5-min Rain = 0
KFLS 081300Z 01002KT M02/M03 A3026 RMK A01 T10211027  RH  097%=      5-min Rain = 0
KFLS 081305Z 01002KT M02/M03 A3026 RMK A01 T10211027  RH  097%=      5-min Rain = 0
KFLS 081310Z 01002KT M02/M03 A3026 RMK A01 T10211027  RH  097%=      5-min Rain = 0
KFLS 081315Z 01002KT M02/M03 A3026 RMK A01 T10211027  RH  097%=      5-min Rain = 0
KFLS 081320Z 01002KT M02/M03 A3026 RMK A01 T10211027  RH  097%=      5-min Rain = 0
KFLS 081325Z 01002KT M02/M03 A3026 RMK A01 T10211027  RH  097%=      5-min Rain = 0
KFLS 081330Z 00002KT M02/M03 A3026 RMK A01 T10211027  RH  097%=      5-min Rain = 0
KFLS 081335Z 00002KT M02/M03 A3027 RMK A01 T10211027  RH  097%=      5-min Rain = 0
KFLS 081340Z 00002KT M02/M03 A3027 RMK A01 T10211027  RH  097%=      5-min Rain = 0
KFLS 081345Z 00002KT M02/M03 A3027 RMK A01 T10211027  RH  097%=      5-min Rain = 0
KFLS 081350Z 00001KT M02/M03 A3027 RMK A01 T10211026  RH  097%=      5-min Rain = 0
KFLS 081355Z 00002KT M02/M03 A3027 RMK A01 T10201026  RH  097%=      5-min Rain = 0
KFLS 081400Z 00002KT M02/M03 A3027 RMK A01 T10201026  RH  097%=      5-min Rain = 0
KFLS 081405Z 36001KT M02/M03 A3027 RMK A01 T10201026  RH  097%=      5-min Rain = 0
KFLS 081410Z 35001KT M02/M03 A3028 RMK A01 T10201025  RH  097%=      5-min Rain = 0
KFLS 081415Z 35001KT M02/M03 A3028 RMK A01 T10191025  RH  097%=      5-min Rain = 0
KFLS 081420Z 35001KT M02/M02 A3028 RMK A01 T10191024  RH  097%=      5-min Rain = 0
KFLS 081425Z 35001KT M02/M02 A3028 RMK A01 T10181024  RH  097%=      5-min Rain = 0
KFLS 081430Z 35001KT M02/M02 A3028 RMK A01 T10181023  RH  097%=      5-min Rain = 0
KFLS 081435Z 35001KT M02/M02 A3029 RMK A01 T10171023  RH  097%=      5-min Rain = 0
KFLS 081440Z 35001KT M02/M02 A3029 RMK A01 T10161022  RH  097%=      5-min Rain = 0
KFLS 081445Z 34001KT M02/M02 A3029 RMK A01 T10161021  RH  097%=      5-min Rain = 0
KFLS 081450Z 35001KT M02/M02 A3029 RMK A01 T10151021  RH  097%=      5-min Rain = 0
KFLS 081455Z 35001KT M01/M02 A3029 RMK A01 T10141019  RH  097%=      5-min Rain = 0
KFLS 081500Z 35001KT M01/M02 A3029 RMK A01 T10131018  RH  097%=      5-min Rain = 0
KFLS 081505Z 35001KT M01/M02 A3029 RMK A01 T10121017  RH  097%=      5-min Rain = 0
KFLS 081510Z 35001KT M01/M02 A303 RMK A01 T10111016  RH  098%=      5-min Rain = 0
KFLS 081515Z 35001KT M01/M02 A303 RMK A01 T10101015  RH  098%=      5-min Rain = 0
KFLS 081520Z 35001KT M01/M02 A303 RMK A01 T10101015  RH  098%=      5-min Rain = 0
KFLS 081525Z 35002KT M01/M01 A303 RMK A01 T10091013  RH  098%=      5-min Rain = 0
KFLS 081530Z 36002KT M01/M01 A303 RMK A01 T10081012  RH  098%=      5-min Rain = 0
KFLS 081535Z 36001KT M01/M01 A303 RMK A01 T10061011  RH  098%=      5-min Rain = 0
KFLS 081540Z 36002KT M01/M01 A3031 RMK A01 T10051010  RH  098%=      5-min Rain = 0
KFLS 081545Z 36002KT M01/M01 A3031 RMK A01 T10051010  RH  098%=      5-min Rain = 0
KFLS 081550Z 00002KT M01/M01 A3031 RMK A01 T10051009  RH  098%=      5-min Rain = 0
KFLS 081555Z 36002KT M01/M01 A3031 RMK A01 T10051010  RH  098%=      5-min Rain = 0
KFLS 081600Z 36002KT M01/M01 A3031 RMK A01 T10061010  RH  098%=      5-min Rain = 0
KFLS 081605Z 00002KT M01/M01 A3031 RMK A01 T10051009  RH  098%=      5-min Rain = 0
KFLS 081610Z 01002KT M01/M01 A3031 RMK A01 T10051009  RH  098%=      5-min Rain = 0
KFLS 081615Z 01002KT M01/M01 A3031 RMK A01 T10051009  RH  098%=      5-min Rain = 0
KFLS 081620Z 01002KT M00/M01 A3031 RMK A01 T10041008  RH  098%=      5-min Rain = 0
KFLS 081625Z 01003KT M00/M01 A3031 RMK A01 T10041008  RH  098%=      5-min Rain = 0
KFLS 081630Z 01003KT M00/M01 A3031 RMK A01 T10041008  RH  098%=      5-min Rain = 0
KFLS 081635Z 01003KT M00/M01 A3031 RMK A01 T10041008  RH  098%=      5-min Rain = 0
KFLS 081640Z 01003KT M01/M01 A3031 RMK A01 T10051009  RH  098%=      5-min Rain = 0
KFLS 081645Z 01003KT M01/M01 A3031 RMK A01 T10061010  RH  098%=      5-min Rain = 0
KFLS 081650Z 01003KT M01/M01 A3031 RMK A01 T10051009  RH  098%=      5-min Rain = 0
KFLS 081655Z 01002KT M00/M01 A3031 RMK A01 T10041008  RH  098%=      5-min Rain = 0
KFLS 081700Z 01003KT M00/M01 A3031 RMK A01 T10041008  RH  098%=      5-min Rain = 0
KFLS 081705Z 01003KT M00/M01 A3031 RMK A01 T10041008  RH  098%=      5-min Rain = 0
KFLS 081710Z 02003KT M00/M01 A3031 RMK A01 T10041008  RH  098%=      5-min Rain = 0
KFLS 081715Z 02002KT M00/M01 A3031 RMK A01 T10041008  RH  098%=      5-min Rain = 0
KFLS 081720Z 02003KT M00/M01 A3031 RMK A01 T10041008  RH  098%=      5-min Rain = 0
KFLS 081725Z 01003KT M00/M01 A3031 RMK A01 T10031007  RH  098%=      5-min Rain = 0
KFLS 081730Z 01002KT M00/M01 A3031 RMK A01 T10021006  RH  098%=      5-min Rain = 0
KFLS 081735Z 01002KT M00/M01 A3031 RMK A01 T10021006  RH  098%=      5-min Rain = 0
KFLS 081740Z 00002KT M00/M01 A3031 RMK A01 T10011005  RH  098%=      5-min Rain = 0
KFLS 081745Z 00002KT M00/M01 A3031 RMK A01 T10011005  RH  098%=      5-min Rain = 0
KFLS 081750Z 01002KT M00/M01 A303 RMK A01 T10011005  RH  098%=      5-min Rain = 0
KFLS 081755Z 01002KT M00/M01 A303 RMK A01 T10011005  RH  098%=      5-min Rain = 0
KFLS 081800Z 01002KT M00/M01 A303 RMK A01 T10011005  RH  098%=      5-min Rain = 0
KFLS 081805Z 01002KT M00/M01 A303 RMK A01 T10011005  RH  098%=      5-min Rain = 0.01
KFLS 081810Z 01002KT M00/M01 A303 RMK A01 T10011005  RH  098%=      5-min Rain = 0.01
KFLS 081815Z 00002KT M00/M00 A3029 RMK A01 T10011004  RH  098%=      5-min Rain = 0.01
KFLS 081820Z 00002KT M00/M00 A3029 RMK A01 T10011004  RH  099%=      5-min Rain = 0.01
KFLS 081825Z 00002KT M00/M01 A3029 RMK A01 T10011005  RH  099%=      5-min Rain = 0.02
KFLS 081830Z 00002KT M00/M00 A3028 RMK A01 T10011004  RH  099%=      5-min Rain = 0.01
KFLS 081835Z 00002KT 00/00 A3028 RMK A01 T00-000-4  RH  099%=      5-min Rain = 0.01
KFLS 081840Z 00002KT 00/00 A3028 RMK A01 T00-000-4  RH  099%=      5-min Rain = 0
KFLS 081845Z 36002KT 00/00 A3028 RMK A01 T000000-4  RH  099%=      5-min Rain = 0.01
KFLS 081850Z 36002KT 00/00 A3027 RMK A01 T000000-3  RH  099%=      5-min Rain = 0
KFLS 081855Z 35002KT 00/00 A3027 RMK A01 T00-000-4  RH  099%=      5-min Rain = 0.01
KFLS 081900Z 35002KT M00/M00 A3027 RMK A01 T10011004  RH  099%=      5-min Rain = 0
KFLS 081905Z 35002KT M00/M00 A3027 RMK A01 T10011004  RH  099%=      5-min Rain = 0
KFLS 081910Z 35002KT 00/00 A3026 RMK A01 T00-000-4  RH  099%=      5-min Rain = 0.01
KFLS 081915Z 36002KT 00/00 A3026 RMK A01 T000000-3  RH  099%=      5-min Rain = 0
KFLS 081920Z 36002KT 00/M00 A3026 RMK A01 T00011003  RH  099%=      5-min Rain = 0.01
KFLS 081925Z 36002KT 00/M00 A3026 RMK A01 T00011003  RH  099%=      5-min Rain = 0
KFLS 081930Z 00002KT 00/M00 A3026 RMK A01 T00011003  RH  099%=      5-min Rain = 0
KFLS 081935Z 00002KT 00/M00 A3026 RMK A01 T00011002  RH  099%=      5-min Rain = 0.01
KFLS 081940Z 01002KT 00/M00 A3025 RMK A01 T00011002  RH  099%=      5-min Rain = 0
KFLS 081945Z 00002KT 00/M00 A3025 RMK A01 T00011002  RH  099%=      5-min Rain = 0
KFLS 081950Z 36002KT 00/00 A3025 RMK A01 T00-000-4  RH  099%=      5-min Rain = 0.01
KFLS 081955Z 00002KT M00/M00 A3025 RMK A01 T10011004  RH  099%=      5-min Rain = 0
KFLS 082000Z 00002KT M00/M01 A3025 RMK A01 T10011005  RH  099%=      5-min Rain = 0.01
KFLS 082005Z 36002KT M00/M01 A3025 RMK A01 T10021005  RH  099%=      5-min Rain = 0
KFLS 082010Z 35002KT M00/M01 A3025 RMK A01 T10031006  RH  099%=      5-min Rain = 0.01
KFLS 082015Z 35002KT M01/M01 A3025 RMK A01 T10061010  RH  098%=      5-min Rain = 0
KFLS 082020Z 34001KT M01/M01 A3025 RMK A01 T10081012  RH  098%=      5-min Rain = 0.01
KFLS 082025Z 34001KT M01/M01 A3025 RMK A01 T10081011  RH  098%=      5-min Rain = 0
KFLS 082030Z 34002KT M01/M01 A3025 RMK A01 T10091012  RH  098%=      5-min Rain = 0
KFLS 082035Z 34001KT M01/M01 A3025 RMK A01 T10091012  RH  098%=      5-min Rain = 0.01
KFLS 082040Z 33002KT M01/M01 A3025 RMK A01 T10091013  RH  098%=      5-min Rain = 0
KFLS 082045Z 33002KT M01/M01 A3025 RMK A01 T10101014  RH  098%=      5-min Rain = 0.01
KFLS 082050Z 33002KT M01/M01 A3024 RMK A01 T10091014  RH  098%=      5-min Rain = 0
KFLS 082055Z 34001KT M01/M01 A3024 RMK A01 T10081013  RH  098%=      5-min Rain = 0
KFLS 082100Z 35001KT M01/M01 A3024 RMK A01 T10071011  RH  098%=      5-min Rain = 0.01
KFLS 082105Z 36001KT M00/M01 A3024 RMK A01 T10041009  RH  098%=      5-min Rain = 0
KFLS 082110Z 36001KT M00/M01 A3024 RMK A01 T10041008  RH  098%=      5-min Rain = 0.01
KFLS 082115Z 35001KT M01/M01 A3024 RMK A01 T10051009  RH  098%=      5-min Rain = 0
KFLS 082120Z 34001KT M01/M01 A3024 RMK A01 T10071011  RH  098%=      5-min Rain = 0
KFLS 082125Z 34002KT M01/M01 A3024 RMK A01 T10091013  RH  098%=      5-min Rain = 0.01
KFLS 082130Z 34001KT M01/M01 A3024 RMK A01 T10091013  RH  098%=      5-min Rain = 0
KFLS 082135Z 35001KT M01/M01 A3024 RMK A01 T10071011  RH  098%=      5-min Rain = 0.01
KFLS 082140Z 34001KT M01/M01 A3024 RMK A01 T10071011  RH  098%=      5-min Rain = 0
KFLS 082145Z 34001KT M01/M01 A3023 RMK A01 T10091014  RH  098%=      5-min Rain = 0
KFLS 082150Z 33001KT M01/M01 A3023 RMK A01 T10091014  RH  098%=      5-min Rain = 0.01
KFLS 082155Z 34001KT M01/M01 A3023 RMK A01 T10091013  RH  098%=      5-min Rain = 0
KFLS 082200Z 32001KT M01/M01 A3023 RMK A01 T10091014  RH  098%=      5-min Rain = 0
KFLS 082205Z 32001KT M01/M01 A3024 RMK A01 T10081013  RH  098%=      5-min Rain = 0.01
KFLS 082210Z 32001KT M01/M01 A3024 RMK A01 T10081013  RH  098%=      5-min Rain = 0
KFLS 082215Z 32001KT M01/M01 A3024 RMK A01 T10081013  RH  098%=      5-min Rain = 0
KFLS 082220Z 32001KT M01/M01 A3024 RMK A01 T10071012  RH  098%=      5-min Rain = 0
KFLS 082225Z 32001KT M01/M01 A3024 RMK A01 T10071012  RH  098%=      5-min Rain = 0.01
KFLS 082230Z 32001KT M01/M01 A3024 RMK A01 T10071012  RH  098%=      5-min Rain = 0
KFLS 082235Z 32001KT M01/M01 A3024 RMK A01 T10071012  RH  098%=      5-min Rain = 0
KFLS 082240Z 32001KT M01/M01 A3024 RMK A01 T10061011  RH  098%=      5-min Rain = 0
KFLS 082245Z 32001KT M01/M01 A3024 RMK A01 T10061011  RH  098%=      5-min Rain = 0
KFLS 082250Z 31000KT M01/M01 A3024 RMK A01 T10061010  RH  098%=      5-min Rain = 0.01
KFLS 082255Z 31000KT M01/M01 A3024 RMK A01 T10051010  RH  098%=      5-min Rain = 0
KFLS 082300Z 31001KT M01/M01 A3024 RMK A01 T10051010  RH  098%=      5-min Rain = 0
KFLS 082305Z 31001KT M01/M01 A3024 RMK A01 T10061010  RH  098%=      5-min Rain = 0
KFLS 082310Z 31000KT M01/M01 A3024 RMK A01 T10061011  RH  098%=      5-min Rain = 0
KFLS 082315Z 00000KT M01/M01 A3024 RMK A01 T10061011  RH  098%=      5-min Rain = 0
KFLS 082320Z 00000KT M01/M01 A3024 RMK A01 T10071012  RH  098%=      5-min Rain = 0
KFLS 082325Z 00000KT M01/M01 A3024 RMK A01 T10091014  RH  098%=      5-min Rain = 0
KFLS 082330Z 00000KT M01/M02 A3024 RMK A01 T10111016  RH  097%=      5-min Rain = 0
KFLS 082335Z 00000KT M02/M02 A3024 RMK A01 T10151020  RH  097%=      5-min Rain = 0
KFLS 082340Z 00000KT M02/M02 A3024 RMK A01 T10171023  RH  097%=      5-min Rain = 0.01
KFLS 082345Z 00000KT M02/M03 A3024 RMK A01 T10211026  RH  097%=      5-min Rain = 0
KFLS 082350Z 00000KT M02/M03 A3023 RMK A01 T10231029  RH  097%=      5-min Rain = 0
KFLS 082355Z 00000KT M03/M03 A3023 RMK A01 T10261032  RH  096%=      5-min Rain = 0
KFLS 090000Z 00000KT M03/M04 A3024 RMK A01 T10301037  RH  096%=      5-min Rain = 0
KFLS 090005Z 00000KT M03/M04 A3024 RMK A01 T10341042  RH  096%=      5-min Rain = 0
KFLS 090010Z 00000KT M03/M04 A3024 RMK A01 T10331040  RH  096%=      5-min Rain = 0
KFLS 090015Z 00000KT M03/M04 A3024 RMK A01 T10341042  RH  096%=      5-min Rain = 0
KFLS 090020Z 00000KT M04/M04 A3024 RMK A01 T10361044  RH  096%=      5-min Rain = 0
KFLS 090025Z 00000KT M04/M05 A3024 RMK A01 T10371045  RH  095%=      5-min Rain = 0
KFLS 090030Z 00000KT M04/M05 A3025 RMK A01 T10401048  RH  095%=      5-min Rain = 0
KFLS 090035Z 00000KT M04/M05 A3025 RMK A01 T10421050  RH  095%=      5-min Rain = 0
KFLS 090040Z 00000KT M04/M05 A3025 RMK A01 T10421050  RH  095%=      5-min Rain = 0
KFLS 090045Z 00000KT M04/M05 A3026 RMK A01 T10421050  RH  095%=      5-min Rain = 0
KFLS 090050Z 00000KT M04/M05 A3026 RMK A01 T10441052  RH  095%=      5-min Rain = 0
KFLS 090055Z 00000KT M05/M05 A3026 RMK A01 T10451054  RH  095%=      5-min Rain = 0
KFLS 090100Z 00000KT M05/M06 A3026 RMK A01 T10481057  RH  094%=      5-min Rain = 0
KFLS 090105Z 00000KT M05/M06 A3026 RMK A01 T10511061  RH  094%=      5-min Rain = 0
KFLS 090110Z 00000KT M05/M06 A3026 RMK A01 T10541064  RH  094%=      5-min Rain = 0
KFLS 090115Z 00000KT M05/M06 A3026 RMK A01 T10541064  RH  094%=      5-min Rain = 0
KFLS 090120Z 00000KT M05/M06 A3026 RMK A01 T10531064  RH  094%=      5-min Rain = 0
KFLS 090125Z 00000KT M05/M06 A3026 RMK A01 T10531063  RH  094%=      5-min Rain = 0
KFLS 090130Z 29001KT M05/M06 A3026 RMK A01 T10521062  RH  094%=      5-min Rain = 0
KFLS 090135Z 29002KT M05/M06 A3026 RMK A01 T10511061  RH  094%=      5-min Rain = 0
KFLS 090140Z 29002KT M05/M06 A3026 RMK A01 T10481058  RH  094%=      5-min Rain = 0
KFLS 090145Z 29002KT M05/M06 A3026 RMK A01 T10521062  RH  094%=      5-min Rain = 0
KFLS 090150Z 28001KT M06/M07 A3026 RMK A01 T10561066  RH  093%=      5-min Rain = 0
KFLS 090155Z 28001KT M06/M07 A3027 RMK A01 T10591069  RH  093%=      5-min Rain = 0
KFLS 090200Z 28001KT M06/M07 A3027 RMK A01 T10601072  RH  093%=      5-min Rain = 0
KFLS 090205Z 28001KT M06/M07 A3027 RMK A01 T10601072  RH  093%=      5-min Rain = 0
KFLS 090210Z 28002KT M06/M07 A3027 RMK A01 T10621074  RH  093%=      5-min Rain = 0
KFLS 090215Z 28002KT M06/M08 A3027 RMK A01 T10641076  RH  092%=      5-min Rain = 0
KFLS 090220Z 28002KT M07/M08 A3027 RMK A01 T10661078  RH  092%=      5-min Rain = 0
KFLS 090225Z 28002KT M07/M08 A3027 RMK A01 T10671080  RH  092%=      5-min Rain = 0
KFLS 090230Z 28002KT M07/M08 A3027 RMK A01 T10691082  RH  092%=      5-min Rain = 0
KFLS 090235Z 29002KT M07/M09 A3027 RMK A01 T10721085  RH  092%=      5-min Rain = 0
KFLS 090240Z 29002KT M07/M09 A3027 RMK A01 T10741087  RH  091%=      5-min Rain = 0
KFLS 090245Z 29002KT M07/M09 A3027 RMK A01 T10741088  RH  091%=      5-min Rain = 0
KFLS 090250Z 29002KT M07/M09 A3027 RMK A01 T10741088  RH  091%=      5-min Rain = 0
KFLS 090255Z 29002KT M07/M09 A3027 RMK A01 T10731087  RH  091%=      5-min Rain = 0
KFLS 090300Z 29002KT M07/M09 A3027 RMK A01 T10721085  RH  092%=      5-min Rain = 0
KFLS 090305Z 29002KT M07/M08 A3027 RMK A01 T10721084  RH  092%=      5-min Rain = 0
KFLS 090310Z 29002KT M07/M08 A3027 RMK A01 T10711084  RH  092%=      5-min Rain = 0
KFLS 090315Z 29002KT M07/M09 A3027 RMK A01 T10731086  RH  091%=      5-min Rain = 0
KFLS 090320Z 29002KT M07/M09 A3027 RMK A01 T10741087  RH  091%=      5-min Rain = 0
KFLS 090325Z 29002KT M07/M09 A3027 RMK A01 T10731086  RH  091%=      5-min Rain = 0
KFLS 090330Z 29002KT M07/M09 A3027 RMK A01 T10731086  RH  091%=      5-min Rain = 0
KFLS 090335Z 29002KT M08/M09 A3027 RMK A01 T10751088  RH  091%=      5-min Rain = 0
KFLS 090340Z 29002KT M07/M09 A3027 RMK A01 T10741088  RH  091%=      5-min Rain = 0
KFLS 090345Z 29002KT M07/M09 A3027 RMK A01 T10731086  RH  091%=      5-min Rain = 0
KFLS 090350Z 28002KT M07/M09 A3028 RMK A01 T10721085  RH  092%=      5-min Rain = 0
KFLS 090355Z 28002KT M07/M08 A3028 RMK A01 T10701083  RH  092%=      5-min Rain = 0
KFLS 090400Z 28001KT M07/M09 A3027 RMK A01 T10741088  RH  091%=      5-min Rain = 0
KFLS 090405Z 27001KT M08/M09 A3028 RMK A01 T10791093  RH  091%=      5-min Rain = 0
KFLS 090410Z 27002KT M08/M10 A3028 RMK A01 T10811096  RH  090%=      5-min Rain = 0
KFLS 090415Z 26001KT M08/M10 A3028 RMK A01 T10821097  RH  090%=      5-min Rain = 0
KFLS 090420Z 26001KT M08/M10 A3028 RMK A01 T10831098  RH  090%=      5-min Rain = 0
KFLS 090425Z 25002KT M08/M10 A3028 RMK A01 T10841099  RH  090%=      5-min Rain = 0
KFLS 090430Z 26002KT M09/M10 A3028 RMK A01 T10851100  RH  090%=      5-min Rain = 0
KFLS 090435Z 27002KT M09/M10 A3028 RMK A01 T10861101  RH  090%=      5-min Rain = 0
KFLS 090440Z 28002KT M09/M10 A3029 RMK A01 T10881103  RH  090%=      5-min Rain = 0
KFLS 090445Z 28001KT M09/M10 A3029 RMK A01 T10881103  RH  090%=      5-min Rain = 0
KFLS 090450Z 28002KT M08/M10 A3029 RMK A01 T10841099  RH  090%=      5-min Rain = 0
KFLS 090455Z 28002KT M08/M09 A3029 RMK A01 T10771091  RH  091%=      5-min Rain = 0
KFLS 090500Z 28002KT M08/M09 A3029 RMK A01 T10761089  RH  091%=      5-min Rain = 0
KFLS 090505Z 28002KT M08/M09 A3029 RMK A01 T10761090  RH  091%=      5-min Rain = 0
KFLS 090510Z 28002KT M08/M09 A3029 RMK A01 T10761090  RH  091%=      5-min Rain = 0
KFLS 090515Z 28002KT M08/M09 A3029 RMK A01 T10771090  RH  091%=      5-min Rain = 0
KFLS 090520Z 28002KT M08/M09 A3029 RMK A01 T10761090  RH  091%=      5-min Rain = 0
KFLS 090525Z 28002KT M08/M09 A3029 RMK A01 T10751089  RH  091%=      5-min Rain = 0
KFLS 090530Z 28002KT M08/M09 A3029 RMK A01 T10761089  RH  091%=      5-min Rain = 0
KFLS 090535Z 28002KT M08/M09 A3029 RMK A01 T10761090  RH  091%=      5-min Rain = 0
KFLS 090540Z 28002KT M08/M09 A3029 RMK A01 T10771091  RH  091%=      5-min Rain = 0
KFLS 090545Z 28002KT M08/M09 A3029 RMK A01 T10781092  RH  091%=      5-min Rain = 0
KFLS 090550Z 28002KT M08/M09 A3029 RMK A01 T10791093  RH  091%=      5-min Rain = 0
KFLS 090555Z 28002KT M08/M10 A3029 RMK A01 T10801095  RH  091%=      5-min Rain = 0

Page generated in 0.0174 seconds.